Temp
66 56 51 57 60 61 58 55 54 60 64 59 57 58 63 67 68 68 69 71 72 74 78 79 75 77 76 73 71 70 70 69 69 72 70 69 71 72 72 79 81 80 80 79
58 52 64 68 67 62 58 54 53 59 63 60 57 56 63 66 66 63 65 66 67 66 72 77 75 73 73 72 71 68 72 69 69 70 72 70 72 71 71 73 77 77 78 79
54 60 70 67 63 60 58 54 52 52 59 61 56 53 57 64 61 62 65 66 68 67 67 70 75 72 71 70 69 68 72 71 71 70 72 70 69 69 70 72 71 75 75 78
59 66 66 62 60 62 53 61 59 56 51 43 52 39 53 53 56 60 63 63 64 67 69 70 71 70 70 72 71 71 71 73 70 70 71 71 72 69 72 71 70 72 77 74
57 61 60 58 61 64 55 62 57 56 50 44 48 39 46 50 50 52 57 60 64 69 68 72 70 71 71 74 71 71 72 71 70 69 69 71 70 70 70 70 72 72 73 75
61 69 65 63 63 63 62 56 54 48 44 34 40 37 35 43 49 52 61 63 64 64 72 68 68 74 72 72 70 70 71 72 70 69 69 69 70 70 69 69 70 70 71 71
56 58 65 65 55 59 55 44 30 28 25 29 44 39 39 53 57 59 59 59 61 64 63 65 62 69 70 72 69 67 70 69 70 69 67 68 70 70 69 69 68 69 69 70
43 41 57 62 56 48 49 44 32 23 23 31 43 35 41 56 58 62 61 61 63 61 57 59 60 61 68 71 71 69 68 70 71 71 70 72 71 70 70 68 67 68 69 71
39 45 59 61 59 54 46 35 44 29 35 31 35 47 48 53 55 57 58 60 59 61 58 59 61 59 65 69 70 68 68 68 72 72 67 69 69 70 69 68 68 68 70 70
48 36 55 58 58 57 51 53 36 33 27 24 35 39 36 46 52 54 56 58 58 61 57 56 59 60 65 66 68 73 67 65 64 67 72 69 68 68 69 68 68 68 68 67
49 36 44 50 46 44 45 40 41 37 34 23 25 32 45 46 51 50 53 56 57 57 56 55 59 63 63 65 65 67 66 66 66 67 67 66 67 67 68 68 68 69 65 66
47 39 32 41 51 56 53 47 47 31 30 31 32 35 55 49 54 54 53 55 56 58 60 61 61 65 65 63 64 65 65 67 66 66 66 66 66 66 66 66 66 66 65 66
47 33 30 37 43 50 45 48 47 45 38 32 28 34 55 56 53 52 49 51 53 57 58 60 61 62 65 64 63 66 65 65 65 67 65 64 65 63 63 65 64 64 65 64
52 38 36 31 38 44 40 45 48 43 32 33 36 41 49 48 43 44 45 48 50 51 53 56 59 58 58 63 63 65 65 66 66 66 65 63 61 61 61 65 64 63 62 61
47 36 41 44 46 47 46 45 46 44 39 34 39 39 45 44 41 44 48 50 50 51 53 54 55 54 56 58 61 63 65 65 66 65 64 63 64 65 64 64 64 63 61 61
45 35 41 39 46 46 44 47 49 46 45 42 41 39 51 46 46 46 47 47 46 47 49 52 55 56 57 57 59 61 62 63 65 64 64 64 62 63 63 63 61 61 60 59
44 41 37 34 43 43 35 42 43 43 44 36 32 43 41 41 43 44 43 42 42 45 47 48 50 51 52 55 59 59 58 60 64 64 65 64 62 61 60 59 57 57 56 56
42 41 40 35 38 25 43 47 48 42 43 44 44 42 41 41 42 43 43 41 42 45 46 47 49 50 50 53 54 55 58 58 64 62 64 63 61 61 59 58 56 56 55 54
50 43 37 32 28 39 45 44 36 34 38 41 36 39 40 41 39 38 44 45 43 43 43 45 47 48 49 51 54 53 55 57 61 61 62 63 60 60 59 57 56 55 54 52
51 45 38 33 29 28 38 46 51 44 33 40 39 37 37 37 29 36 42 41 41 42 44 45 46 47 48 49 51 51 54 55 56 61 61 63 60 61 57 56 55 55 53 51
37 37 33 32 30 36 46 50 48 30 33 39 40 38 35 33 35 38 39 39 42 44 46 49 50 46 47 49 50 50 54 55 57 61 61 59 59 58 56 55 53 51 50 50
34 30 28 34 29 26 50 47 35 37 39 40 36 37 36 36 37 38 38 39 43 45 48 51 50 49 48 50 49 51 51 55 57 59 58 58 57 56 55 52 50 50 49 47
32 37 36 38 34 47 49 44 46 42 36 36 36 37 37 36 36 37 38 40 44 46 48 48 45 48 48 49 49 48 51 55 56 56 57 57 56 54 53 51 49 48 48 46
43 47 37 39 44 46 49 46 43 42 37 40 38 38 37 36 37 38 39 42 44 47 51 49 44 45 45 49 52 49 54 57 56 57 57 55 52 52 52 50 50 48 47 46
41 44 41 40 44 44 46 44 43 42 41 39 39 38 37 38 37 37 38 43 45 48 50 49 47 45 46 48 52 52 54 58 56 56 55 53 52 51 49 48 48 48 50 48
41 43 38 37 43 39 41 43 43 39 39 39 37 37 38 39 37 38 39 43 45 47 48 48 49 48 49 50 49 52 55 57 56 55 53 52 50 50 47 44 42 41 42 42
MSLP
1008.69 1009.02 1009.19 1008.95 1008.83 1008.57 1008.76 1008.93 1008.65 1007.87 1007.48 1007.40 1007.24 1006.77 1005.35 1005.74 1005.59 1004.78 1004.07 1003.53 1002.72 1002.16 1001.70 1001.54 1001.54 1001.49 1001.28 1001.66 1002.49 1003.06 1003.59 1003.98 1004.41 1004.98 1005.69 1006.24 1006.52 1006.88 1007.08 1006.30 1006.44 1006.77 1007.36 1007.86
1009.36 1009.24 1008.60 1008.25 1008.16 1008.19 1008.47 1008.68 1008.41 1007.78 1007.70 1007.66 1007.65 1007.17 1005.64 1005.47 1005.03 1004.71 1004.04 1003.08 1002.24 1001.55 1001.16 1000.85 1000.65 1000.86 1000.99 1001.11 1001.46 1002.15 1002.74 1003.26 1003.86 1004.18 1004.70 1005.37 1005.83 1006.02 1006.41 1006.41 1006.58 1006.17 1006.84 1007.03
1009.83 1009.32 1008.63 1008.29 1008.23 1008.24 1008.18 1008.35 1008.26 1008.40 1007.78 1007.53 1007.96 1006.98 1005.91 1005.34 1005.05 1004.50 1003.48 1002.33 1002.02 1001.70 1000.98 1000.37 1000.11 1000.00 1000.31 1000.67 1000.98 1001.49 1002.02 1002.43 1002.97 1003.52 1004.22 1004.89 1005.39 1005.61 1006.02 1006.25 1006.52 1006.39 1006.10 1006.52
1009.43 1009.01 1008.64 1008.30 1008.19 1007.93 1007.75 1008.11 1008.34 1008.59 1008.86 1008.32 1008.46 1007.66 1006.87 1006.27 1005.65 1005.41 1004.53 1003.58 1003.22 1001.50 1000.60 999.86 999.69 999.43 999.51 999.69 999.91 1000.38 1001.21 1001.78 1002.31 1002.87 1003.59 1004.26 1004.90 1005.33 1005.29 1005.52 1006.00 1005.88 1005.97 1006.33
1009.08 1008.66 1008.22 1008.16 1008.08 1007.84 1008.31 1008.33 1008.98 1009.42 1009.77 1009.41 1009.26 1009.39 1007.37 1006.73 1006.21 1005.80 1005.00 1004.12 1003.38 1001.36 1000.61 999.83 999.42 999.51 998.66 998.69 999.21 999.72 1000.41 1001.25 1001.68 1002.49 1002.89 1003.62 1004.33 1004.68 1004.59 1004.80 1005.33 1005.35 1005.59 1005.98
1008.79 1008.59 1008.50 1008.58 1008.97 1008.92 1009.18 1009.35 1009.85 1010.43 1011.08 1010.92 1010.18 1010.10 1008.10 1007.59 1007.09 1005.74 1005.15 1004.74 1005.05 1003.26 1001.74 1001.16 1000.45 999.85 999.73 998.27 998.62 999.26 999.89 1000.60 1001.21 1001.85 1002.39 1002.96 1003.49 1004.02 1004.28 1004.43 1004.39 1005.64 1005.11 1005.78
1009.35 1009.34 1008.96 1009.42 1009.46 1009.54 1010.18 1011.16 1011.94 1012.51 1012.60 1011.92 1010.76 1010.44 1009.06 1007.85 1007.02 1006.69 1005.97 1004.91 1004.06 1003.51 1003.61 1002.85 1002.31 1000.65 1000.39 1000.31 999.09 999.07 999.61 1000.37 1000.84 1001.31 1001.89 1002.44 1002.90 1003.36 1003.62 1003.76 1003.99 1004.24 1004.79 1006.50
1010.50 1009.84 1010.19 1010.45 1011.03 1011.06 1011.53 1012.42 1013.95 1014.54 1014.23 1012.55 1011.50 1009.77 1008.92 1008.35 1007.14 1006.37 1005.72 1005.11 1003.72 1003.76 1004.15 1003.84 1003.79 1002.69 1000.64 1001.23 1000.33 1000.05 999.44 999.85 1000.26 1000.82 1001.36 1001.79 1002.11 1002.71 1003.03 1003.29 1003.56 1003.84 1004.71 1005.45
1011.74 1011.28 1011.03 1011.42 1011.66 1012.07 1012.07 1012.82 1013.63 1015.01 1014.90 1014.37 1011.84 1009.45 1009.02 1008.01 1007.39 1006.87 1006.26 1005.65 1004.99 1004.61 1004.72 1004.25 1003.90 1003.75 1002.87 1002.39 1000.93 1000.70 999.90 999.94 999.59 1000.22 1000.91 1001.49 1001.77 1002.24 1002.54 1002.73 1002.87 1003.20 1003.69 1004.51
1012.75 1012.39 1011.92 1011.69 1012.04 1011.55 1012.61 1012.58 1013.64 1015.36 1014.87 1014.03 1011.63 1010.04 1008.90 1008.04 1007.40 1007.07 1006.54 1006.04 1005.76 1005.41 1005.38 1004.99 1004.48 1004.19 1003.09 1002.64 1001.51 1001.25 1000.48 1000.08 1000.32 1000.77 1000.39 1001.03 1001.53 1001.89 1002.04 1002.41 1002.91 1003.00 1003.28 1003.91
1013.37 1014.52 1012.98 1012.98 1012.51 1012.30 1012.13 1012.62 1013.74 1014.69 1014.67 1014.06 1012.09 1009.63 1008.41 1007.87 1007.66 1007.33 1006.97 1006.69 1006.37 1006.21 1005.97 1005.43 1004.93 1003.88 1003.35 1002.52 1002.12 1001.60 1001.19 1000.50 1001.13 1001.16 1000.94 1001.29 1001.44 1001.67 1001.88 1002.32 1002.62 1002.91 1003.52 1004.00
1014.16 1014.80 1014.48 1013.73 1012.34 1011.86 1011.13 1012.58 1013.26 1013.94 1013.97 1013.23 1012.01 1008.22 1006.93 1007.35 1006.99 1007.28 1007.42 1007.26 1006.82 1006.37 1005.87 1005.73 1005.28 1004.40 1003.35 1002.75 1002.27 1001.89 1001.02 1000.51 1000.52 1000.95 1001.20 1002.63 1001.31 1002.19 1002.26 1002.54 1002.79 1003.20 1003.73 1003.97
1014.08 1015.21 1015.24 1013.34 1012.60 1011.55 1012.06 1012.08 1012.46 1012.83 1012.63 1012.46 1011.88 1008.35 1006.95 1007.09 1007.25 1008.02 1008.10 1007.86 1007.51 1006.97 1006.22 1005.77 1004.86 1004.44 1003.74 1002.62 1002.40 1001.61 1001.13 1000.85 1000.56 1000.21 1000.77 1000.72 1000.80 1001.74 1001.86 1002.69 1003.19 1003.65 1003.92 1004.64
1013.66 1014.82 1015.33 1014.76 1013.40 1013.05 1012.00 1011.79 1011.76 1012.25 1012.58 1011.59 1010.75 1008.50 1007.25 1007.70 1008.38 1008.55 1008.52 1008.40 1007.95 1007.36 1007.01 1006.18 1005.11 1004.47 1003.93 1002.96 1002.42 1001.54 1001.10 1000.66 1000.62 1000.31 1000.35 1001.22 1001.25 1000.99 1001.28 1002.38 1003.16 1004.04 1004.58 1004.96
1013.68 1014.35 1014.44 1013.87 1013.17 1012.59 1011.77 1011.19 1010.62 1010.97 1011.51 1011.21 1009.98 1009.27 1008.53 1008.58 1008.90 1008.79 1008.19 1007.51 1006.92 1006.43 1005.99 1005.55 1004.98 1004.46 1004.26 1003.67 1002.54 1001.90 1001.12 1000.73 1000.47 1000.65 1000.65 1000.77 1001.11 1000.89 1001.72 1002.38 1003.20 1004.28 1005.00 1005.63
1013.33 1013.65 1013.81 1013.18 1012.88 1012.27 1011.16 1010.41 1009.89 1009.81 1009.99 1009.79 1009.66 1009.13 1008.71 1008.88 1009.10 1008.99 1008.38 1008.08 1007.41 1006.44 1005.45 1005.10 1004.64 1004.21 1003.57 1003.50 1003.13 1001.95 1001.61 1001.21 1000.28 1000.64 1000.81 1000.87 1001.25 1001.41 1002.40 1002.74 1003.71 1004.91 1005.56 1006.18
1013.40 1013.55 1013.82 1012.34 1012.52 1011.61 1010.70 1009.64 1009.91 1009.94 1010.05 1010.32 1010.10 1008.99 1009.33 1009.32 1009.38 1008.68 1008.33 1007.93 1007.10 1006.34 1005.64 1004.93 1004.51 1004.24 1003.71 1003.07 1002.93 1002.13 1001.70 1001.44 1000.50 1000.46 1000.62 1001.04 1001.73 1002.09 1002.86 1003.50 1004.10 1005.16 1006.15 1007.00
1011.92 1012.66 1013.46 1012.27 1012.08 1011.12 1009.78 1010.09 1010.20 1010.17 1010.12 1009.93 1009.78 1009.96 1010.31 1010.09 1009.48 1008.25 1008.29 1007.68 1006.71 1005.97 1005.26 1004.62 1004.15 1003.72 1003.35 1002.81 1002.70 1001.96 1001.61 1001.39 1000.91 1000.37 1000.49 1001.00 1001.99 1002.49 1003.30 1003.70 1004.68 1005.57 1006.46 1007.63
1010.93 1011.95 1012.90 1012.95 1012.24 1010.61 1009.56 1010.04 1010.51 1010.82 1009.86 1010.34 1010.97 1010.85 1010.58 1010.02 1009.49 1005.55 1007.07 1007.07 1006.54 1005.73 1004.71 1003.99 1003.48 1003.14 1002.92 1002.40 1001.97 1001.83 1001.65 1001.28 1000.92 1000.38 1000.41 1000.87 1001.73 1002.62 1003.50 1004.06 1004.89 1006.01 1006.94 1008.09
1011.10 1011.83 1012.88 1012.65 1012.22 1010.69 1009.70 1009.75 1009.71 1009.86 1010.37 1010.91 1011.33 1011.10 1010.73 1010.36 1009.20 1006.73 1005.85 1005.69 1004.86 1003.98 1003.30 1002.48 1001.88 1001.86 1001.81 1001.66 1001.52 1001.33 1001.14 1001.01 1000.88 1000.31 1000.32 1000.78 1001.78 1002.62 1003.72 1004.58 1005.25 1006.40 1007.51 1008.57
1012.42 1012.43 1012.55 1012.39 1012.03 1010.13 1008.96 1009.29 1009.43 1010.52 1011.31 1011.16 1011.43 1011.22 1010.79 1010.31 1009.66 1007.53 1006.60 1004.90 1004.32 1003.01 1001.34 1000.17 999.62 999.88 1000.14 1000.52 1000.68 1000.31 1000.28 1000.41 1000.48 1000.20 1000.39 1001.22 1002.05 1002.97 1003.91 1005.03 1006.02 1007.11 1008.20 1009.36
1013.31 1013.08 1012.76 1012.57 1011.77 1010.10 1008.52 1009.43 1011.07 1011.47 1011.28 1011.42 1011.43 1011.05 1010.29 1009.40 1008.29 1007.37 1006.16 1004.69 1003.03 1001.17 999.81 998.55 998.22 997.97 998.65 999.31 999.85 999.68 999.76 999.78 1000.19 1000.10 1000.56 1001.77 1002.91 1003.73 1004.59 1005.41 1006.98 1007.95 1008.82 1010.02
1013.53 1013.49 1013.28 1012.89 1011.19 1010.08 1009.89 1010.71 1011.05 1011.25 1011.64 1011.47 1011.07 1010.42 1009.75 1008.64 1007.57 1006.55 1005.24 1003.72 1001.83 1000.10 998.78 997.95 997.85 997.28 997.92 998.52 999.06 999.35 999.35 999.42 999.97 1000.00 1000.79 1002.10 1003.48 1004.31 1005.04 1005.96 1007.16 1008.10 1009.58 1010.42
1013.98 1013.22 1012.63 1012.55 1010.50 1010.53 1010.34 1010.54 1010.82 1011.11 1011.36 1011.11 1010.68 1009.83 1009.18 1008.10 1006.96 1005.77 1004.68 1002.97 1001.16 999.32 997.67 997.55 997.80 997.97 998.07 998.34 998.62 999.17 999.06 999.08 999.71 1000.03 1001.11 1002.51 1003.74 1004.86 1005.91 1007.15 1007.97 1008.45 1009.58 1010.76
1014.43 1013.56 1012.20 1012.09 1011.21 1010.70 1010.44 1011.00 1011.26 1011.17 1011.10 1010.66 1010.03 1009.45 1008.57 1007.49 1006.20 1005.54 1003.96 1002.31 1000.75 999.13 997.82 997.34 997.45 997.74 997.88 998.18 998.45 998.71 998.67 998.92 999.47 1000.23 1001.57 1002.91 1004.09 1005.21 1006.47 1007.73 1008.59 1009.17 1010.14 1010.41
1013.21 1012.60 1012.42 1011.58 1011.47 1011.20 1011.05 1011.10 1011.11 1011.06 1010.79 1010.34 1009.77 1008.67 1007.83 1007.05 1006.05 1004.96 1003.57 1001.73 1000.54 999.12 998.29 997.46 997.15 997.38 997.59 998.16 998.36 998.34 998.53 998.74 999.46 1000.66 1002.07 1003.12 1004.51 1005.76 1006.95 1008.05 1009.69 1010.72 1011.22 1011.93
Wind_Speed
8 4 7 12 7 6 6 9 13 17 8 13 14 17 24 16 18 21 21 21 20 19 18 14 10 12 11 10 10 10 9 9 6 4 4 3 11 7 6 6 14 15 12 11
8 7 12 19 16 7 9 13 11 12 14 14 14 21 25 21 17 9 12 12 11 6 11 17 13 10 11 11 11 11 13 10 7 5 5 4 4 9 7 4 6 15 14 14
7 12 17 12 17 16 12 10 6 10 16 16 12 19 19 16 6 8 14 11 12 10 9 11 14 12 10 11 10 11 15 13 10 8 6 3 2 3 8 7 4 12 15 14
8 9 16 13 16 14 14 6 9 12 13 18 3 16 17 8 12 16 17 21 23 16 9 8 9 10 11 13 11 12 14 15 10 10 9 10 9 9 9 10 4 8 15 12
16 13 14 12 9 11 7 9 9 12 15 10 14 8 7 7 8 14 15 21 26 21 9 8 9 9 9 12 11 13 15 13 10 9 8 10 9 8 6 9 14 11 11 9
10 8 7 10 18 14 21 15 18 7 6 8 3 2 5 5 6 6 17 17 16 18 18 13 8 18 13 8 8 12 15 15 12 12 10 9 12 10 7 8 9 10 6 5
7 7 9 14 23 16 14 10 8 6 5 8 5 10 7 8 11 8 9 14 11 15 15 17 17 14 18 19 5 10 14 13 13 11 9 10 9 10 9 9 7 9 5 8
5 8 8 20 13 9 10 5 4 6 3 16 14 7 3 4 13 15 8 12 12 12 7 12 16 16 16 19 12 12 11 14 14 13 11 12 11 6 6 5 5 7 8 11
3 5 16 10 11 7 8 6 2 2 5 5 6 1 2 11 14 12 10 9 10 7 10 10 13 11 7 9 10 9 6 4 16 16 8 8 7 7 7 7 5 5 6 7
5 11 1 9 15 9 14 7 2 2 4 6 5 6 3 4 4 5 5 8 9 10 7 9 10 10 13 10 10 14 7 8 3 5 11 9 8 7 7 6 6 5 4 4
4 3 8 7 4 18 13 3 3 4 3 3 6 5 8 7 4 6 4 8 13 13 11 8 8 8 11 9 6 5 7 7 7 5 3 4 7 6 6 6 4 4 5 7
3 2 5 15 23 16 13 1 15 3 9 6 7 16 11 2 12 8 7 9 12 13 17 14 10 14 10 10 8 7 7 5 4 2 7 13 6 4 4 4 4 3 7 7
4 1 6 12 6 8 4 12 16 13 3 11 6 11 5 13 11 12 13 14 16 19 15 14 16 13 11 8 7 5 4 6 5 6 7 5 8 7 5 3 7 8 8 7
9 7 8 12 17 14 22 19 20 15 6 7 12 21 16 7 8 10 12 12 13 14 16 18 16 11 8 8 8 8 4 2 5 7 6 4 7 8 7 9 9 10 9 14
4 5 7 13 17 18 20 25 25 20 18 9 10 11 12 6 6 11 17 21 25 23 20 16 14 12 12 14 7 9 9 6 2 5 5 5 4 8 7 14 12 13 12 14
4 6 6 17 16 20 25 22 14 12 9 7 8 17 13 6 8 15 20 22 24 22 22 19 16 19 17 12 13 5 8 10 5 3 6 4 8 9 9 13 13 13 13 12
10 10 7 16 13 16 13 5 6 7 6 2 9 18 6 13 16 24 24 24 23 21 19 19 16 15 18 14 13 6 6 9 6 6 7 2 5 9 11 14 15 15 15 14
10 6 5 10 7 5 4 5 4 8 10 15 15 9 8 16 21 24 22 19 19 17 18 19 16 14 15 16 11 5 6 7 10 6 7 5 7 12 12 13 15 13 13 15
10 5 5 4 3 15 8 4 3 4 20 7 8 17 17 20 19 30 4 13 18 20 21 20 19 17 16 13 12 6 7 6 9 7 7 4 5 13 13 15 16 14 14 12
13 1 2 4 10 13 1 2 5 5 8 5 12 16 18 17 14 21 25 24 26 24 19 18 19 17 16 14 11 9 10 7 8 7 5 3 8 16 14 15 15 12 14 14
7 5 6 4 6 8 2 14 4 3 8 10 13 15 17 14 14 22 25 27 22 23 25 23 17 15 17 14 11 9 11 11 9 6 7 9 9 15 16 15 13 14 15 15
5 4 3 2 4 8 15 16 5 5 5 11 10 15 17 19 21 20 22 23 24 25 22 13 7 11 15 14 12 10 7 7 6 6 11 12 13 11 13 19 15 15 16 16
5 3 6 5 6 14 13 2 3 2 4 7 13 17 18 20 21 21 20 23 22 25 20 2 5 5 11 12 12 6 6 7 5 7 13 13 14 13 15 17 17 15 15 14
8 12 6 15 3 17 14 8 6 4 4 12 14 18 18 20 20 21 19 19 19 20 7 3 5 5 6 9 11 6 7 9 6 11 15 13 15 14 14 11 11 13 13 13
13 14 9 9 16 15 4 7 8 10 10 16 16 17 19 20 20 18 18 18 16 15 10 4 6 7 7 6 10 9 5 7 6 15 14 14 13 14 13 11 10 11 11 12
5 5 4 11 17 6 8 10 11 11 15 16 17 19 17 17 18 18 18 16 14 12 10 8 3 5 8 8 6 5 5 7 12 14 11 12 12 12 12 13 13 21 19 20
Wind_Direction
297 320 251 257 290 310 321 304 287 289 310 354 332 317 306 316 301 288 282 274 263 254 251 250 231 227 203 197 184 185 181 191 158 154 165 189 219 239 257 220 189 179 180 179
339 313 324 322 310 322 296 275 293 304 337 326 323 300 292 292 280 305 305 304 283 276 259 245 234 219 212 202 196 181 188 185 179 161 177 176 182 224 229 235 220 180 185 183
311 291 304 312 318 310 292 300 302 311 319 295 289 276 291 288 320 298 292 275 299 277 285 258 235 220 210 203 194 180 185 182 177 178 163 179 188 256 219 235 209 208 191 190
279 298 297 302 286 284 285 303 324 315 312 291 29 305 311 342 348 338 324 339 330 280 282 292 243 213 206 207 191 175 177 183 179 175 176 180 205 216 220 220 194 209 199 192
281 282 282 293 314 315 303 323 321 317 302 322 309 267 323 351 336 341 341 339 342 306 284 307 342 260 218 197 180 172 173 181 176 181 172 181 195 209 222 208 215 214 192 185
283 337 342 345 1 6 344 339 324 339 321 285 316 86 272 306 275 327 342 334 314 352 345 8 4 19 349 205 174 166 173 183 181 184 192 183 189 207 216 202 208 206 200 170
340 316 316 37 348 343 348 344 327 329 357 253 313 326 286 346 315 284 310 324 340 7 9 1 0 10 16 10 285 161 172 183 188 183 180 190 187 203 210 216 199 204 160 202
326 333 348 349 339 313 329 327 142 270 291 295 291 246 150 323 339 308 28 334 341 4 5 34 12 337 29 348 2 4 187 186 182 186 189 193 183 187 214 207 203 188 190 184
360 247 328 322 357 347 297 323 241 131 239 276 249 291 38 25 356 332 348 327 331 341 356 23 23 343 329 312 323 7 50 251 178 188 174 178 179 170 194 213 190 190 164 181
335 310 276 327 326 290 334 278 5 44 304 284 281 303 215 338 242 324 301 324 331 352 7 356 16 330 326 326 353 344 336 92 51 240 178 184 180 181 187 193 198 181 183 152
17 128 287 333 305 305 310 13 347 199 211 236 303 261 210 230 1 321 348 5 358 358 349 345 333 318 311 308 319 333 326 46 95 234 239 203 193 182 170 176 180 171 141 140
112 244 293 294 288 280 256 151 282 186 283 232 259 284 254 99 347 339 22 357 346 338 332 327 322 315 283 289 297 309 334 359 358 9 135 213 161 138 152 172 159 145 141 152
180 296 307 307 313 357 9 307 311 296 19 277 268 267 310 325 317 20 7 351 342 331 321 311 315 310 298 293 289 247 310 335 334 355 50 170 147 165 163 123 107 103 119 126
149 187 194 257 271 287 293 289 287 291 264 275 261 285 307 316 17 353 334 323 317 312 305 301 292 289 296 287 299 278 258 233 331 343 9 92 211 191 169 131 128 118 110 107
180 237 246 263 274 282 287 290 291 288 256 244 292 301 311 347 344 324 318 324 322 310 296 280 288 296 306 312 308 344 287 226 201 323 334 323 302 211 141 135 127 120 110 113
172 254 254 270 281 281 278 278 289 282 294 279 305 291 292 346 330 314 310 314 306 300 297 296 292 278 283 285 293 305 311 288 174 228 287 306 342 129 131 119 117 115 122 117
254 269 279 272 283 289 287 240 261 290 289 258 278 281 8 325 322 306 318 308 303 294 290 289 285 277 285 284 268 255 290 318 226 181 257 53 35 126 132 126 121 121 122 118
232 249 246 279 278 249 220 96 315 266 274 273 280 324 325 312 310 303 297 286 285 290 287 284 280 276 274 267 270 278 283 292 277 196 240 89 87 142 135 128 121 118 118 123
213 236 305 294 272 278 288 24 258 217 288 23 351 323 312 316 311 301 235 305 297 287 280 277 273 267 265 268 259 246 262 266 270 207 229 102 105 141 142 129 129 126 119 113
9 332 215 270 288 289 271 357 282 273 268 14 333 315 313 320 300 296 321 314 305 298 287 276 262 251 246 249 249 220 231 247 271 209 199 99 97 137 136 132 128 122 118 116
323 318 269 303 285 272 89 11 333 17 306 324 320 308 308 293 277 294 301 297 297 289 290 286 262 229 226 226 239 217 212 216 245 221 119 94 101 129 133 123 121 120 118 117
301 281 289 328 273 280 356 357 347 257 285 312 298 303 300 289 293 295 296 297 299 300 306 288 290 223 206 207 219 216 214 190 227 188 113 112 117 130 131 126 124 122 122 121
306 326 281 261 251 301 318 77 281 317 247 301 300 308 300 296 298 303 303 304 303 303 301 288 323 188 190 196 204 196 216 190 216 144 125 125 130 138 132 130 130 126 130 129
297 305 286 317 319 307 319 341 6 357 285 314 307 306 304 298 301 305 302 303 306 307 282 176 143 172 191 192 192 207 220 179 192 127 133 134 131 130 130 126 133 131 134 129
284 297 304 285 274 306 3 349 351 322 320 320 314 304 300 302 305 306 303 306 309 312 326 221 177 177 191 199 172 204 216 158 146 130 136 135 132 134 122 115 128 130 130 136
236 299 288 311 300 275 326 1 341 337 329 319 311 306 304 304 303 303 302 308 312 327 333 337 202 155 154 181 181 197 229 145 131 137 135 134 128 123 115 109 93 64 86 87